Kingsville NAS, TX

5:39 PM CST on December 17, 2017 (GMT -0600)
Kingsville Naval Air Station

Weather History for KNQI - September, 2012

Change the Weather History Date:

Wednesday, September 12, 2012

  Actual Average Record
Temperature  
Mean Temperature 85 °F -  
Max Temperature 97 °F 89 °F 102 °F (2011)
Min Temperature 73 °F 71 °F 61 °F (2017)
Cooling Degree Days 20    
Growing Degree Days 35 (Base 50)    
Moisture  
Dew Point 74 °F    
Average Humidity 74    
Maximum Humidity 97    
Minimum Humidity 47    
Precipitation  
Precipitation 0.00 in - - ()
Sea Level Pressure  
Sea Level Pressure 29.96 in    
Wind  
Wind Speed 8 mph (SE)    
Max Wind Speed 22 mph    
Max Gust Speed 32 mph    
Visibility 9 miles    
Events      
Averages and records for this station are not official NWS values.
T = Trace of Precipitation, MM = Missing Value Source: NWS Daily Summary

Daily Weather History Graph

Daily Weather History Graph

Search for Another Location

Airport or City:

Trip Planner

Search our weather history database for the weather conditions in past years. The results will help you decide how hot, cold, wet, or windy it might be!

Date:

Astronomy

Sep. 12, 2012 Rise Set
Actual Time 7:15 AM CDT 7:38 PM CDT
Civil Twilight 6:52 AM CDT 8:02 PM CDT
Nautical Twilight 6:24 AM CDT 8:29 PM CDT
Astronomical Twilight 5:56 AM CDT 8:57 PM CDT
Moon 3:49 AM CDT (9/12) 5:14 PM CDT (9/12)
Length of Visible Light 13h 10m
Length of Day
12h 23m
Waning Crescent, 13% of the Moon is Illuminated
Sep 12
Waning Crescent
Sep 15
New
Sep 22
First Quarter
Sep 29
Full
Oct 8
Last Quarter

Hourly Weather History & Observations

Time (CDT) Temp. Heat Index Dew Point Humidity Pressure Visibility Wind Dir Wind Speed Gust Speed Precip Events Conditions
12:56 AM 75.9 °F - 73.9 °F 94% 29.98 in 9.0 mi Calm Calm - N/A   Clear
1:56 AM 77.0 °F - 73.9 °F 90% 29.97 in 9.0 mi Calm Calm - N/A   Clear
2:56 AM 75.9 °F - 73.9 °F 94% 29.96 in 9.0 mi SSE 3.5 mph - N/A   Clear
3:56 AM 75.9 °F - 73.9 °F 94% 29.94 in 9.0 mi SSE 5.8 mph - N/A   Clear
4:56 AM 75.0 °F - 73.0 °F 94% 29.93 in 8.0 mi ESE 4.6 mph - N/A   Clear
5:56 AM 73.9 °F - 73.0 °F 97% 29.94 in 8.0 mi East 4.6 mph - N/A   Clear
6:56 AM 73.9 °F - 72.0 °F 93% 29.96 in 8.0 mi ESE 3.5 mph - N/A   Scattered Clouds
7:56 AM 75.0 °F - 73.9 °F 96% 29.98 in 6.0 mi ESE 3.5 mph - N/A   Scattered Clouds
8:56 AM 82.9 °F 91.8 °F 77.0 °F 82% 29.99 in 8.0 mi SSE 10.4 mph - N/A   Scattered Clouds
9:32 AM 84.2 °F 92.3 °F 75.2 °F 74% 30.00 in 9.0 mi South 12.7 mph - N/A   Mostly Cloudy
9:47 AM 86.0 °F 95.1 °F 75.2 °F 70% 30.01 in 9.0 mi SSE 15.0 mph - N/A   Scattered Clouds
9:56 AM 84.9 °F 93.3 °F 75.0 °F 72% 30.00 in 10.0 mi SSE 13.8 mph - N/A   Scattered Clouds
10:56 AM 91.9 °F 100.7 °F 73.0 °F 54% 30.00 in 10.0 mi SSE 13.8 mph - N/A   Scattered Clouds
11:56 AM 93.0 °F 100.7 °F 72.0 °F 50% 29.98 in 10.0 mi South 15.0 mph 20.7 mph N/A   Scattered Clouds
12:56 PM 93.0 °F 100.7 °F 72.0 °F 50% 29.96 in 10.0 mi SSE 11.5 mph 23.0 mph N/A   Mostly Cloudy
1:56 PM 93.9 °F 105.4 °F 75.0 °F 54% 29.94 in 10.0 mi SE 17.3 mph 24.2 mph N/A   Mostly Cloudy
2:56 PM 97.0 °F 107.7 °F 73.9 °F 47% 29.92 in 10.0 mi SE 18.4 mph 26.5 mph N/A   Mostly Cloudy
3:56 PM 93.9 °F 102.1 °F 72.0 °F 49% 29.91 in 10.0 mi SE 21.9 mph 32.2 mph N/A   Scattered Clouds
4:56 PM 90.0 °F 97.9 °F 73.0 °F 57% 29.90 in 10.0 mi ESE 20.7 mph 29.9 mph N/A   Mostly Cloudy
5:56 PM 91.0 °F 99.3 °F 73.0 °F 55% 29.90 in 9.0 mi SE 16.1 mph 28.8 mph N/A   Scattered Clouds
6:56 PM 88.0 °F 96.5 °F 73.9 °F 63% 29.91 in 10.0 mi SE 18.4 mph 27.6 mph N/A   Scattered Clouds
7:56 PM 84.9 °F 92.1 °F 73.9 °F 69% 29.91 in 10.0 mi SE 17.3 mph - N/A   Partly Cloudy
8:56 PM 82.9 °F 89.4 °F 73.9 °F 74% 29.93 in 10.0 mi SE 13.8 mph - N/A   Partly Cloudy
9:56 PM 82.0 °F 88.6 °F 75.0 °F 79% 29.96 in 10.0 mi SE 10.4 mph - N/A   Clear
10:56 PM 82.9 °F 91.8 °F 77.0 °F 82% 29.97 in 9.0 mi SSE 15.0 mph - N/A   Partly Cloudy
11:56 PM 82.0 °F 90.2 °F 77.0 °F 85% 29.98 in 9.0 mi SE 10.4 mph - N/A   Clear